Location: UBC Liquid-Mirror Observatory
(49.2876°N, 122.5728°W)
Time: 21:23:32
(UTC-07:00)

Amateur Radio Satellites - All Passes

Search period start: 25 October 2014 20:53
Search period end: 26 October 2014 20:53
Location: UBC Liquid-Mirror Observatory, 49.2876°N, 122.5728°W

Satellite Date Start Highest point End Downlink Frequencies (MHz)
Time Altitude Azimuth
UOSAT-12 25 Oct 21:17:33 21:21:12 21° 27° (NNE) 21:24:49 437.025 FM, 437.400 FM
Oscar 11 25 Oct 21:25:29 21:29:35 43° 69° (ENE) 21:33:41 145.825 FM, Beacon 2401.500 USB
FUNcube-1 25 Oct 21:26:51 21:30:27 23° 63° (ENE) 21:34:00 145.950 - 145.970 MHz USB
KITSAT 1 25 Oct 21:32:25 21:40:30 75° 238° (WSW) 21:48:31 435.175 FM
SO-50 25 Oct 21:39:49 21:44:38 72° 234° (SW) 21:49:30 436.795 FM
STRAND 1 25 Oct 22:01:53 22:05:08 17° 305° (NW) 22:08:22 ?
Oscar 10/S400 25 Oct 22:07:53 22:50:54 37° 207° (SSW) 04:16:13 145.825 - 145.975 CW/USB, Beacon 145.810 USB
ZACube-1 25 Oct 22:17:29 22:22:01 66° 73° (ENE) 22:26:29 437.345 MHz
UKube-1 25 Oct 22:20:54 22:25:07 48° 260° (W) 22:29:22 145.840 MHz, 145.915 MHz
RS-15 25 Oct 22:22:48 22:33:13 53° 115° (ESE) 22:43:37 29.354 - 29.394 USB, Beacon 29.352 USB
HO-68 25 Oct 22:26:29 22:32:40 31° 267° (W) 22:38:54 435.675 MHz FM
UOSAT-12 25 Oct 22:57:21 23:02:07 75° 49° (NE) 23:06:48 437.025 FM, 437.400 FM
FUNcube-1 25 Oct 23:02:09 23:06:34 48° 261° (W) 23:10:56 145.950 - 145.970 MHz USB
Oscar 11 25 Oct 23:02:34 23:05:58 22° 267° (W) 23:09:23 145.825 FM, Beacon 2401.500 USB
SO-50 25 Oct 23:22:35 23:24:23 12° 252° (WSW) 23:26:12 436.795 FM
KITSAT 1 25 Oct 23:29:29 23:34:34 18° 259° (W) 23:39:39 435.175 FM
ZACube-1 25 Oct 23:55:57 23:58:50 16° 271° (W) 00:01:43 437.345 MHz
MaSat-1 26 Oct 00:22:49 00:26:49 82° 120° (ESE) 00:30:24 437.345 MHz
RS-15 26 Oct 00:34:41 00:45:29 61° 321° (NW) 00:56:25 29.354 - 29.394 USB, Beacon 29.352 USB
UOSAT-12 26 Oct 00:38:30 00:41:44 19° 248° (WSW) 00:44:57 437.025 FM, 437.400 FM
JAS-1B 26 Oct 01:05:06 01:07:47 12° 85° (E) 01:10:36 435.800 - 435.900 CW/SSB
Oscar 16 26 Oct 01:49:25 01:53:24 22° 91° (E) 01:57:21 437.025 USB, Beacon 2401.1428
MaSat-1 26 Oct 02:00:40 02:02:46 14° 317° (NW) 02:04:46 437.345 MHz
Uribyol 2 26 Oct 02:11:59 02:15:09 16° 88° (E) 02:18:18 436.500 FM
ITAMSAT 1 26 Oct 02:18:12 02:21:36 17° 89° (E) 02:24:58 435.822 SSB
Oscar 19 26 Oct 02:41:59 02:47:03 60° 101° (ESE) 02:52:06 437.125 CW, 437.150 USB
Gurwin Techsat 1B 26 Oct 02:45:50 02:49:16 17° 88° (E) 02:52:41 435.225 FM
RS-15 26 Oct 02:50:35 03:00:28 37° 353° (N) 03:10:33 29.354 - 29.394 USB, Beacon 29.352 USB
JAS-1B 26 Oct 02:52:54 02:59:26 65° 103° (ESE) 03:07:13 435.800 - 435.900 CW/SSB
TMSAT-1 26 Oct 02:56:21 02:59:33 16° 87° (E) 03:02:44 436.925 FM
AO-27 26 Oct 03:03:11 03:08:08 41° 98° (E) 03:13:02 436.795 MHz FM
AO-Echo 26 Oct 03:11:58 03:17:16 63° 101° (ESE) 03:22:32 ?
Oscar 16 26 Oct 03:28:06 03:33:08 58° 290° (WNW) 03:38:09 437.025 USB, Beacon 2401.1428
Sapphire 26 Oct 03:36:57 03:41:32 29° 111° (ESE) 03:46:08 437.095 MHz 1200 baud AX-25 AFSK
Uribyol 2 26 Oct 03:50:03 03:55:18 82° 287° (WNW) 04:00:29 436.500 FM
ITAMSAT 1 26 Oct 03:56:27 04:01:42 77° 288° (WNW) 04:06:54 435.822 SSB
PCSat 26 Oct 03:58:38 04:03:45 45° 116° (ESE) 04:08:54 145.825 MHz
OPAL 26 Oct 04:16:38 04:21:04 31° 60° (ENE) 04:25:29 ?
Oscar 19 26 Oct 04:22:02 04:26:02 24° 300° (WNW) 04:30:02 437.125 CW, 437.150 USB
Gurwin Techsat 1B 26 Oct 04:24:32 04:29:52 79° 287° (WNW) 04:35:11 435.225 FM
TMSAT-1 26 Oct 04:34:49 04:40:10 84° 286° (WNW) 04:45:28 436.925 FM
AO-27 26 Oct 04:42:54 04:47:34 34° 297° (WNW) 04:52:13 436.795 MHz FM
JAS-1B 26 Oct 04:44:19 04:49:49 31° 300° (WNW) 04:56:06 435.800 - 435.900 CW/SSB
JAS-2 26 Oct 04:47:42 04:51:19 14° 79° (E) 04:54:56 435.800 - 435.900 CW/SSB, 435.910 FM
AO-Echo 26 Oct 04:51:27 04:55:37 24° 300° (WNW) 04:59:48 ?
Uosat F 26 Oct 04:58:35 05:02:57 28° 94° (E) 05:07:17 435.120 FM
AO-7 26 Oct 05:05:04 05:13:00 45° 99° (E) 05:20:53 29.400 - 29.500 MHz
RS-15 26 Oct 05:05:37 05:16:07 46° 27° (NNE) 05:26:56 29.354 - 29.394 USB, Beacon 29.352 USB
Oscar 16 26 Oct 05:10:05 05:11:28 11° 310° (NW) 05:12:51 437.025 USB, Beacon 2401.1428
Sapphire 26 Oct 05:19:21 05:24:40 57° 311° (NW) 05:30:03 437.095 MHz 1200 baud AX-25 AFSK
Uribyol 2 26 Oct 05:31:01 05:34:00 16° 307° (NW) 05:36:58 436.500 FM
ITAMSAT 1 26 Oct 05:37:33 05:40:22 15° 307° (NW) 05:43:11 435.822 SSB
PCSat 26 Oct 05:42:11 05:47:16 40° 317° (NW) 05:52:23 145.825 MHz
OPAL 26 Oct 05:54:54 05:59:49 45° 259° (WSW) 06:04:41 ?
STRAND 1 26 Oct 06:03:19 06:07:48 32° 63° (ENE) 06:12:20 ?
Gurwin Techsat 1B 26 Oct 06:06:03 06:09:02 15° 307° (NW) 06:12:00 435.225 FM
TMSAT-1 26 Oct 06:16:10 06:19:19 16° 306° (NW) 06:22:28 436.925 FM
JAS-2 26 Oct 06:30:09 06:37:51 60° 100° (E) 06:45:33 435.800 - 435.900 CW/SSB, 435.910 FM
Uosat F 26 Oct 06:37:06 06:41:55 45° 293° (WNW) 06:46:41 435.120 FM
Hamsat 26 Oct 06:48:05 06:52:10 49° 99° (E) 06:56:15 145.90 MHz
AO-7 26 Oct 06:57:58 07:05:55 52° 300° (WNW) 07:13:53 29.400 - 29.500 MHz
Sapphire 26 Oct 07:05:35 07:09:17 18° 334° (NNW) 07:13:01 437.095 MHz 1200 baud AX-25 AFSK
RS-15 26 Oct 07:18:31 07:29:39 83° 235° (SW) 07:41:14 29.354 - 29.394 USB, Beacon 29.352 USB
PCSat 26 Oct 07:29:07 07:32:13 15° 341° (NNW) 07:35:20 145.825 MHz
Saudisat 1A 26 Oct 07:40:30 07:44:34 39° 120° (ESE) 07:48:41 436.775 MHz
STRAND 1 26 Oct 07:42:00 07:46:52 43° 262° (W) 07:51:48 ?
JAS-2 26 Oct 08:15:34 08:22:33 39° 299° (WNW) 08:29:38 435.800 - 435.900 CW/SSB, 435.910 FM
Hamsat 26 Oct 08:24:44 08:27:50 20° 297° (WNW) 08:30:55 145.90 MHz
MaSat-1 26 Oct 08:29:25 08:31:58 34° 53° (NE) 08:34:19 437.345 MHz
SO-67 26 Oct 08:31:13 08:34:41 82° 284° (WNW) 08:38:08 435.3500 MHz FM
AO-7 26 Oct 08:52:04 08:56:55 17° 324° (NW) 09:01:47 29.400 - 29.500 MHz
Sapphire 26 Oct 08:53:05 08:55:02 12° 1° (N) 08:56:59 437.095 MHz 1200 baud AX-25 AFSK
PCSat 26 Oct 09:15:54 09:18:05 12° 8° (N) 09:20:15 145.825 MHz
Saudisat 1A 26 Oct 09:20:05 09:24:11 37° 320° (NW) 09:28:18 436.775 MHz
RS-15 26 Oct 09:32:01 09:40:25 26° 258° (WSW) 09:49:07 29.354 - 29.394 USB, Beacon 29.352 USB
HO-68 26 Oct 09:48:03 09:54:55 45° 98° (E) 10:01:44 435.675 MHz FM
JAS-2 26 Oct 10:03:15 10:05:37 12° 321° (NW) 10:08:00 435.800 - 435.900 CW/SSB, 435.910 FM
UKube-1 26 Oct 10:05:18 10:08:40 21° 93° (E) 10:12:01 145.840 MHz, 145.915 MHz
MaSat-1 26 Oct 10:06:53 10:07:05 10° 255° (WSW) 10:07:18 437.345 MHz
Sapphire 26 Oct 10:36:54 10:40:44 19° 27° (NNE) 10:44:34 437.095 MHz 1200 baud AX-25 AFSK
Oscar 11 26 Oct 10:44:44 10:48:56 49° 99° (E) 10:53:07 145.825 FM, Beacon 2401.500 USB
FUNcube-1 26 Oct 10:47:30 10:50:59 24° 93° (E) 10:54:23 145.950 - 145.970 MHz USB
PCSat 26 Oct 10:59:09 11:03:33 24° 33° (NNE) 11:07:56 145.825 MHz
Saudisat 1A 26 Oct 11:02:39 11:04:58 14° 343° (NNW) 11:07:17 436.775 MHz
HO-68 26 Oct 11:35:53 11:42:40 46° 299° (WNW) 11:49:25 435.675 MHz FM
ZACube-1 26 Oct 11:38:57 11:43:15 79° 103° (ESE) 11:47:26 437.345 MHz
UKube-1 26 Oct 11:40:53 11:45:06 47° 291° (WNW) 11:49:17 145.840 MHz, 145.915 MHz
JAS-1B 26 Oct 11:57:07 12:00:06 15° 49° (NE) 12:03:07 435.800 - 435.900 CW/SSB
SO-50 26 Oct 12:01:07 12:03:16 13° 109° (ESE) 12:05:26 436.795 FM
KITSAT 1 26 Oct 12:05:04 12:12:34 45° 113° (ESE) 12:20:06 435.175 FM
Sapphire 26 Oct 12:19:53 12:25:17 61° 50° (NE) 12:30:40 437.095 MHz 1200 baud AX-25 AFSK
Oscar 11 26 Oct 12:21:35 12:24:50 21° 298° (WNW) 12:28:04 145.825 FM, Beacon 2401.500 USB
FUNcube-1 26 Oct 12:23:32 12:27:31 39° 292° (WNW) 12:31:24 145.950 - 145.970 MHz USB
Oscar 19 26 Oct 12:25:29 12:29:22 22° 59° (ENE) 12:33:16 437.125 CW, 437.150 USB
PCSat 26 Oct 12:42:14 12:47:43 89° 55° (NE) 12:53:09 145.825 MHz
Saudisat 1A 26 Oct 12:44:46 12:46:25 12° 8° (N) 12:48:03 436.775 MHz
AO-27 26 Oct 12:48:34 12:51:52 17° 55° (NE) 12:55:11 436.795 MHz FM
AO-Echo 26 Oct 12:52:15 12:55:51 20° 57° (ENE) 12:59:33 ?
Oscar 16 26 Oct 13:10:12 13:15:09 49° 68° (ENE) 13:20:06 437.025 USB, Beacon 2401.1428
ISS 26 Oct 13:16:16 13:19:24 39° 149° (SSE) 13:22:33 145.800 FM
ZACube-1 26 Oct 13:16:49 13:19:04 14° 302° (WNW) 13:21:18 437.345 MHz
HO-68 26 Oct 13:25:38 13:28:40 13° 321° (NW) 13:31:43 435.675 MHz FM
Uribyol 2 26 Oct 13:33:22 13:38:08 37° 65° (ENE) 13:42:56 436.500 FM
SO-50 26 Oct 13:38:31 13:43:03 85° 129° (SE) 13:47:45 436.795 FM
ITAMSAT 1 26 Oct 13:39:48 13:44:38 40° 65° (ENE) 13:49:29 435.822 SSB
JAS-1B 26 Oct 13:44:04 13:49:52 77° 72° (ENE) 13:55:35 435.800 - 435.900 CW/SSB
KITSAT 1 26 Oct 13:59:52 14:07:50 59° 316° (NW) 14:15:49 435.175 FM
Oscar 19 26 Oct 14:03:11 14:08:17 65° 258° (WSW) 14:13:25 437.125 CW, 437.150 USB
Sapphire 26 Oct 14:03:53 14:08:21 27° 250° (WSW) 14:12:49 437.095 MHz 1200 baud AX-25 AFSK
Gurwin Techsat 1B 26 Oct 14:10:35 14:15:30 40° 65° (ENE) 14:20:26 435.225 FM
AO-7 26 Oct 14:18:34 14:24:58 26° 46° (NE) 14:31:22 29.400 - 29.500 MHz
TMSAT-1 26 Oct 14:20:40 14:25:30 37° 65° (ENE) 14:30:22 436.925 FM
Saudisat 1A 26 Oct 14:23:52 14:27:31 24° 32° (NNE) 14:31:09 436.775 MHz
AO-27 26 Oct 14:25:28 14:30:42 90° 254° (WSW) 14:35:58 436.795 MHz FM
PCSat 26 Oct 14:27:02 14:30:24 17° 255° (WSW) 14:33:45 145.825 MHz
AO-Echo 26 Oct 14:29:09 14:34:05 70° 257° (WSW) 14:39:14 ?
Uosat F 26 Oct 14:41:17 14:42:53 11° 50° (NE) 14:44:28 435.120 FM
Oscar 16 26 Oct 14:50:25 14:54:45 27° 267° (W) 14:59:05 437.025 USB, Beacon 2401.1428
UOSAT-12 26 Oct 14:52:00 14:56:30 51° 122° (ESE) 15:01:05 437.025 FM, 437.400 FM
ISS 26 Oct 14:52:41 14:56:01 67° 348° (NNW) 14:59:21 145.800 FM
JAS-2 26 Oct 15:08:12 15:09:43 11° 38° (NE) 15:11:15 435.800 - 435.900 CW/SSB, 435.910 FM
Uribyol 2 26 Oct 15:12:49 15:17:37 36° 263° (W) 15:22:27 436.500 FM
ITAMSAT 1 26 Oct 15:19:28 15:24:11 34° 264° (W) 15:28:57 435.822 SSB
SO-50 26 Oct 15:20:27 15:24:12 24° 330° (NNW) 15:28:03 436.795 FM
JAS-1B 26 Oct 15:37:44 15:41:22 17° 272° (W) 15:44:58 435.800 - 435.900 CW/SSB
Gurwin Techsat 1B 26 Oct 15:50:43 15:55:32 34° 264° (W) 16:00:23 435.225 FM
KITSAT 1 26 Oct 15:58:21 16:05:03 27° 343° (NNW) 16:11:46 435.175 FM
TMSAT-1 26 Oct 16:00:32 16:05:26 37° 264° (W) 16:10:21 436.925 FM
Saudisat 1A 26 Oct 16:03:07 16:07:33 75° 233° (SW) 16:11:57 436.775 MHz
AO-27 26 Oct 16:08:13 16:10:58 14° 273° (W) 16:13:44 436.795 MHz FM
AO-7 26 Oct 16:08:25 16:16:42 83° 68° (ENE) 16:25:02 29.400 - 29.500 MHz
AO-Echo 26 Oct 16:13:42 16:13:53 10° 277° (W) 16:14:03 ?
Uosat F 26 Oct 16:15:44 16:20:41 61° 70° (ENE) 16:25:40 435.120 FM
ISS 26 Oct 16:29:37 16:32:56 59° 8° (N) 16:36:15 145.800 FM
UOSAT-12 26 Oct 16:32:35 16:36:51 34° 323° (NW) 16:41:11 437.025 FM, 437.400 FM
JAS-2 26 Oct 16:46:59 16:52:45 40° 61° (ENE) 16:59:14 435.800 - 435.900 CW/SSB, 435.910 FM
SO-50 26 Oct 17:04:15 17:06:26 13° 355° (N) 17:08:39 436.795 FM
Saudisat 1A 26 Oct 17:45:08 17:46:20 11° 252° (WSW) 17:47:32 436.775 MHz
Hamsat 26 Oct 17:45:13 17:49:20 59° 73° (ENE) 17:53:28 145.90 MHz
Uosat F 26 Oct 17:56:07 17:59:53 21° 269° (W) 18:03:40 435.120 FM
KITSAT 1 26 Oct 17:56:51 18:03:22 26° 13° (NNE) 18:09:53 435.175 FM
OPAL 26 Oct 18:00:32 18:04:59 32° 98° (E) 18:09:23 ?
AO-7 26 Oct 18:03:51 18:10:26 26° 269° (W) 18:17:04 29.400 - 29.500 MHz
ISS 26 Oct 18:06:22 18:09:39 54° 207° (SSW) 18:12:55 145.800 FM
UOSAT-12 26 Oct 18:15:47 18:18:24 15° 347° (NNW) 18:21:01 437.025 FM, 437.400 FM
JAS-2 26 Oct 18:31:49 18:37:43 47° 264° (W) 18:44:26 435.800 - 435.900 CW/SSB, 435.910 FM
HO-68 26 Oct 18:37:52 18:41:30 15° 41° (NE) 18:45:07 435.675 MHz FM
SO-50 26 Oct 18:45:48 18:48:54 17° 20° (NNE) 18:52:02 436.795 FM
SO-67 26 Oct 19:07:28 19:10:51 60° 74° (ENE) 19:14:16 435.3500 MHz FM
Hamsat 26 Oct 19:23:07 19:25:41 16° 271° (W) 19:28:15 145.90 MHz
OPAL 26 Oct 19:39:20 19:43:57 39° 297° (WNW) 19:48:32 ?
ISS 26 Oct 19:44:34 19:45:44 11° 225° (SW) 19:46:54 145.800 FM
STRAND 1 26 Oct 19:48:00 19:53:00 47° 99° (E) 19:57:57 ?
KITSAT 1 26 Oct 19:53:02 20:00:53 50° 40° (NE) 20:08:40 435.175 FM
UOSAT-12 26 Oct 19:57:59 20:00:29 14° 11° (NNE) 20:02:58 437.025 FM, 437.400 FM
HO-68 26 Oct 20:20:47 20:27:40 52° 63° (ENE) 20:34:35 435.675 MHz FM
SO-50 26 Oct 20:25:57 20:30:36 46° 42° (NE) 20:35:18 436.795 FM
SO-67 26 Oct 20:43:19 20:44:13 11° 272° (W) 20:45:07 435.3500 MHz FM
